EHI
0 0 0 0 0 0 0 0 0 0 0 0 1 4 9 12 12 13 19 25 30 34 38 43 45 41 37 36 35 30 27 25 25 24 21 16 11 5 2 1 0 0 0 0
0 0 0 0 0 0 0 0 0 0 0 0 0 3 7 10 10 11 15 21 28 35 41 47 51 48 42 39 35 31 28 27 25 24 21 16 10 5 2 1 0 0 0 0
0 0 0 0 0 0 0 0 0 0 0 0 0 2 5 8 9 9 10 16 25 34 43 50 54 52 46 38 32 27 26 26 25 23 20 17 13 8 4 2 1 1 1 0
0 0 0 0 0 0 0 0 0 0 0 0 0 1 3 5 7 7 10 18 26 33 41 49 52 49 44 34 24 21 22 23 22 20 19 18 15 11 8 5 3 2 2 1
0 0 0 0 0 0 0 0 0 0 0 0 0 0 1 2 4 7 13 22 30 35 40 45 46 43 38 29 21 18 21 22 19 18 17 16 14 11 9 8 5 3 2 1
0 0 0 0 0 0 0 0 0 0 0 0 0 0 0 0 2 6 13 21 30 35 38 41 42 39 34 28 23 22 23 22 18 17 15 13 11 10 10 10 8 4 2 1
0 0 0 0 0 0 0 0 0 0 0 0 0 0 0 0 1 4 10 18 28 35 37 39 40 38 34 30 27 25 25 22 18 16 15 12 11 10 10 10 10 7 3 2
0 0 0 0 0 0 0 0 0 0 0 0 0 0 0 1 2 4 9 17 27 34 36 37 39 37 34 31 28 26 25 22 18 16 15 11 9 8 7 8 9 7 4 3
0 0 0 0 0 0 0 0 0 0 0 0 0 0 1 2 5 8 12 19 27 33 35 34 34 33 29 27 26 25 22 18 14 13 12 9 6 5 5 6 7 6 4 2
0 0 0 0 0 0 0 0 0 0 0 0 0 0 1 3 8 13 17 20 24 30 33 30 27 25 22 20 23 24 21 16 10 8 9 7 6 5 4 4 4 4 3 1
0 0 0 0 0 0 0 0 0 0 0 0 0 0 1 4 9 16 21 21 23 29 31 27 22 19 15 16 20 23 22 17 12 9 8 8 7 6 4 4 3 3 3 2
0 0 0 0 0 0 0 0 0 0 0 0 0 0 2 4 9 16 22 26 28 31 30 26 23 20 17 17 18 20 20 18 16 12 10 9 9 8 6 4 3 4 4 4
0 0 0 0 0 0 0 0 0 0 0 0 0 0 2 5 9 16 25 33 38 40 35 31 30 28 25 23 20 18 17 18 17 15 12 12 11 11 10 7 5 4 4 3
0 0 0 0 0 0 0 0 0 0 0 0 0 0 2 5 10 18 27 37 45 46 42 38 38 38 34 31 25 20 17 17 16 15 14 14 13 12 12 9 6 4 3 2
0 0 0 0 0 0 0 0 0 0 0 0 0 1 3 7 11 17 26 37 43 45 43 43 42 42 40 37 31 25 20 18 16 16 16 16 15 14 13 10 6 3 2 2
0 0 0 0 0 0 0 0 0 0 0 0 0 2 7 11 13 18 25 32 36 39 42 45 45 43 42 40 36 32 26 22 21 20 19 18 18 17 14 10 6 4 3 3
0 0 0 0 0 0 0 0 0 0 0 0 2 5 10 15 19 23 27 29 30 34 42 47 47 45 43 41 40 37 32 27 25 24 22 20 19 18 16 11 8 7 5 4
0 0 0 0 0 0 0 0 0 0 0 1 4 8 13 18 24 26 28 28 28 33 40 46 47 47 46 43 41 39 35 30 28 26 24 21 19 19 16 12 10 9 6 4
0 0 0 0 0 0 0 0 1 1 0 1 4 8 14 19 21 24 28 29 28 30 37 43 47 51 51 45 40 37 34 30 27 26 24 21 19 17 14 12 12 10 7 4
0 0 0 0 0 0 0 0 1 1 1 3 6 9 12 16 19 24 30 30 28 29 36 43 48 52 51 46 40 36 33 29 25 23 22 19 16 14 12 11 11 10 7 4
1 0 0 0 0 0 0 1 2 3 4 6 9 12 14 17 23 29 32 31 29 32 37 43 46 45 44 43 39 34 30 25 21 20 19 16 13 12 12 11 11 9 7 5
2 1 1 0 0 2 3 4 6 7 10 11 13 15 19 23 28 29 30 31 30 32 35 37 38 36 35 35 33 28 24 20 17 17 16 14 11 10 11 11 10 8 7 5
2 3 3 3 3 6 8 9 11 13 15 16 14 15 19 23 24 23 24 27 27 28 28 27 28 28 27 27 24 21 18 16 14 13 13 12 10 10 10 10 9 7 6 5
1 3 5 7 8 9 10 11 12 14 16 16 15 14 15 17 17 18 19 22 23 22 21 21 22 21 21 21 19 16 14 12 11 10 10 10 10 10 10 10 9 6 5 4
1 2 5 9 11 11 11 10 10 10 12 14 15 14 14 15 15 16 18 20 20 17 17 19 20 18 17 17 16 13 11 10 9 8 8 9 9 9 9 9 8 5 3 2
1 2 4 8 11 12 12 9 8 8 9 12 15 14 14 16 15 14 16 19 18 16 15 17 19 17 16 16 15 12 11 9 8 7 7 7 8 9 8 7 5 3 1 1
Wind_Speed
7 10 10 7 6 4 4 6 5 2 3 6 5 4 1 3 5 5 6 7 8 8 8 8 9 9 9 9 10 10 11 10 8 7 7 7 6 6 5 5 6 7 6 6
9 12 8 3 4 6 7 8 5 2 0 5 5 5 2 3 4 4 6 7 8 8 9 9 9 9 10 10 10 10 11 10 9 7 6 5 5 5 5 5 5 7 7 7
13 3 5 8 9 9 9 8 4 3 3 5 6 6 5 4 4 4 5 6 7 8 9 9 9 9 10 10 11 9 10 10 10 8 6 5 4 4 5 6 6 7 7 8
11 5 7 10 10 10 8 4 5 5 7 3 4 6 3 4 4 5 5 6 7 8 9 9 9 10 10 9 9 9 10 10 9 9 8 9 8 7 7 6 5 7 8 8
9 8 10 12 9 9 3 1 4 5 7 7 5 8 1 3 2 3 4 5 6 7 8 9 9 9 8 8 8 9 9 9 10 9 9 9 8 7 6 6 6 6 6 8
5 5 8 9 7 7 4 5 4 7 8 8 3 7 3 2 1 1 3 5 6 8 8 8 8 8 7 8 7 8 8 9 9 10 10 10 10 8 7 7 7 6 5 6
10 10 8 7 9 10 10 9 7 8 7 4 2 6 2 4 2 1 1 5 7 9 9 9 9 9 8 8 8 7 8 8 9 10 10 10 10 9 8 8 7 6 5 6
12 12 12 11 12 9 13 13 8 6 5 2 5 5 2 3 1 1 3 6 8 9 9 9 9 8 8 9 8 7 8 8 8 9 9 8 8 7 7 8 6 6 5 5
9 7 8 9 10 10 11 12 9 7 6 6 3 2 2 3 3 4 5 7 8 8 9 9 9 8 8 8 8 8 8 7 7 7 8 8 8 7 6 6 6 5 5 5
5 6 9 8 8 7 8 8 6 9 6 7 4 4 1 4 4 5 6 7 8 9 9 9 8 8 8 8 7 7 7 7 7 7 7 6 6 6 5 5 5 4 4 4
9 7 9 11 12 12 10 9 9 8 7 7 4 2 5 2 4 5 6 7 7 8 9 9 8 8 8 8 8 7 6 6 6 6 6 5 5 5 5 4 4 4 4 4
11 8 8 10 5 4 11 12 12 9 7 7 7 2 6 3 4 5 6 7 7 8 9 9 9 8 8 8 7 7 7 6 5 5 5 5 4 4 4 4 4 3 3 3
10 8 9 10 10 8 10 10 11 10 7 8 9 2 7 4 4 5 6 7 7 8 8 9 9 8 8 7 7 7 7 6 6 5 5 5 4 4 4 3 3 2 2 2
8 9 11 10 7 11 12 12 11 12 10 9 10 4 4 4 4 5 6 7 8 8 8 8 8 8 7 7 7 6 6 6 6 5 5 5 4 4 4 3 3 2 2 2
8 10 10 8 3 7 11 12 13 14 12 10 7 6 3 2 3 4 6 7 8 8 9 9 8 8 8 7 7 6 6 6 6 5 5 5 4 4 4 4 3 3 2 2
6 7 9 9 7 8 9 10 11 12 10 10 8 4 0 1 2 5 6 7 8 8 9 9 9 9 9 8 8 7 7 6 6 6 5 5 5 5 4 4 4 4 3 3
7 7 9 10 9 9 11 10 10 9 7 8 8 3 1 1 2 4 5 7 7 8 8 9 8 8 8 8 8 8 8 7 7 6 6 5 5 5 5 5 5 4 4 4
6 7 7 7 8 13 4 3 6 7 6 5 4 2 2 1 1 2 3 4 5 6 7 8 7 7 8 8 8 8 8 8 7 7 6 6 6 6 6 5 5 5 5 4
6 7 7 8 12 10 5 4 5 7 6 2 3 2 1 2 4 4 2 2 3 4 6 6 6 7 7 8 8 8 8 8 7 7 6 6 6 6 6 5 5 5 5 5
6 7 8 8 11 11 5 5 2 6 7 1 1 2 2 4 5 4 4 3 4 4 5 6 6 7 7 7 8 8 8 8 7 7 7 6 6 6 6 6 6 5 5 6
10 9 11 11 10 6 4 3 5 8 1 4 2 1 1 1 3 4 4 4 4 5 6 6 6 6 6 7 8 8 8 7 7 7 7 7 6 7 7 6 5 6 6 6
8 9 10 10 11 5 5 2 2 3 5 3 3 2 2 3 5 5 5 5 5 6 6 6 6 6 6 6 7 8 7 7 7 7 7 7 6 6 6 7 6 6 6 7
4 4 3 3 1 6 3 3 4 3 3 3 3 3 2 3 4 5 5 5 5 5 5 5 6 6 5 5 6 7 7 8 8 8 8 7 7 6 6 6 7 6 5 5
4 1 3 2 1 2 2 3 3 3 3 3 3 2 2 3 4 5 5 5 5 5 5 5 6 6 5 5 5 6 7 7 8 8 8 7 7 6 6 4 4 4 4 4
0 2 3 3 1 1 2 3 4 3 3 3 3 3 2 3 4 5 5 5 5 4 4 5 5 6 6 5 5 6 7 8 8 8 8 7 7 7 6 6 5 3 4 3
4 4 5 2 1 2 2 3 3 3 3 3 3 3 3 3 4 5 5 5 5 5 4 5 6 6 6 6 6 5 6 7 8 8 7 6 6 6 6 7 7 12 9 10
Wind_Direction
194 220 219 214 233 281 269 265 265 303 350 290 279 285 231 188 200 191 189 185 183 181 168 169 174 177 176 181 186 191 192 186 183 182 186 186 187 192 196 202 197 202 207 199
199 223 222 208 211 231 240 250 248 220 26 291 289 277 220 181 203 208 201 191 182 172 165 166 171 171 179 184 192 197 193 189 190 189 189 191 187 197 196 205 200 209 212 210
220 176 178 201 208 222 231 250 267 288 280 231 275 240 178 164 180 191 204 196 185 177 170 166 168 173 177 183 191 194 192 194 196 190 186 186 183 201 199 205 204 208 209 212
229 186 191 210 215 227 227 236 263 262 264 256 285 288 160 163 183 188 196 194 184 176 168 166 170 176 183 186 186 187 188 193 198 194 196 197 199 203 205 208 202 202 208 213
204 199 205 216 216 224 236 195 241 252 260 268 239 276 180 158 200 168 176 183 178 170 166 167 171 175 177 180 180 181 185 190 196 200 200 205 211 212 206 206 202 208 209 215
202 194 222 225 209 209 175 189 202 234 248 251 257 275 273 96 15 100 143 160 166 161 160 161 161 162 169 173 175 176 182 192 196 199 202 208 213 214 213 208 206 208 205 209
202 203 204 210 191 187 206 217 217 220 224 238 131 258 306 50 12 338 142 151 159 159 158 160 161 162 165 171 174 177 184 192 196 197 202 207 212 213 215 215 212 214 210 206
199 198 195 203 215 198 210 226 243 261 257 189 174 249 55 70 60 92 141 143 151 156 155 158 160 159 164 168 172 177 184 190 194 196 199 205 211 213 215 212 214 210 215 214
206 192 168 198 215 224 203 228 252 261 267 270 222 221 177 148 143 128 129 140 149 150 150 154 154 157 162 167 170 174 177 181 190 194 193 199 207 215 219 210 213 215 210 212
214 198 168 168 185 213 251 225 217 241 250 255 224 233 178 149 146 139 141 144 144 150 150 154 155 156 159 163 163 167 170 176 183 188 194 190 197 203 208 212 211 213 209 213
221 214 169 180 203 187 192 208 225 235 254 268 253 141 79 119 145 153 149 148 152 155 153 154 156 157 160 159 156 158 162 169 175 180 181 178 184 185 188 195 201 202 206 202
210 227 206 192 171 253 216 214 211 223 221 249 276 109 102 129 148 159 152 150 152 154 153 154 154 157 162 159 156 157 161 164 169 166 166 170 175 176 181 184 189 193 206 209
188 212 207 193 190 198 218 217 222 234 235 239 250 168 121 144 161 162 157 155 157 158 158 158 157 160 162 161 160 160 163 161 163 161 161 163 170 169 173 175 176 181 197 203
207 219 232 225 204 189 202 206 213 222 229 232 244 255 168 183 187 174 167 167 165 162 163 165 162 161 161 161 160 159 154 152 155 154 153 157 166 166 169 167 161 161 165 169
216 219 228 250 240 213 212 208 206 222 243 253 248 252 231 201 201 185 174 170 169 168 169 169 168 164 165 163 163 159 156 155 151 148 150 152 155 154 153 150 145 141 142 140
217 232 215 221 214 218 221 214 211 221 234 245 252 241 96 81 160 171 177 178 177 175 174 171 171 170 171 169 168 162 160 157 153 152 153 151 148 143 139 136 135 129 124 118
197 215 217 216 203 215 219 214 215 214 223 242 246 246 197 182 169 180 182 185 182 176 172 172 173 174 174 172 169 165 161 159 157 152 152 149 141 135 129 129 127 121 114 110
211 218 224 219 199 226 202 177 225 223 221 240 266 276 263 229 166 175 178 181 178 173 169 168 167 164 165 163 162 159 157 159 156 150 146 143 139 131 128 128 124 119 115 109
220 218 227 221 217 218 175 181 210 218 211 220 251 240 174 127 170 139 112 146 155 160 158 158 158 154 150 151 154 156 157 157 156 151 147 144 142 137 135 133 125 119 118 114
189 224 233 223 234 227 180 141 187 234 210 111 271 236 197 203 221 122 96 107 121 130 137 139 139 137 139 144 150 154 156 155 153 147 142 139 139 138 135 132 127 123 119 115
188 201 223 225 231 227 79 124 196 224 147 38 17 351 224 247 7 79 98 98 106 114 122 127 129 130 133 142 146 147 146 144 140 137 134 130 134 134 130 127 123 123 118 112
219 208 211 226 232 204 71 182 226 26 22 23 26 29 49 68 82 98 103 105 109 112 117 123 123 120 125 137 141 139 136 133 134 133 129 128 132 133 130 127 123 125 126 122
246 307 281 264 326 61 48 30 28 6 3 18 18 27 75 103 101 102 102 101 101 103 107 115 118 114 115 129 139 139 135 136 134 131 129 127 127 125 127 131 135 136 136 134
163 260 259 235 142 62 57 50 45 30 16 10 19 34 94 109 107 108 104 99 100 102 112 118 118 116 114 117 124 130 132 134 134 133 132 131 128 123 118 121 129 133 137 138
248 210 224 230 228 226 100 53 38 32 30 37 46 52 78 111 116 114 110 108 107 106 108 116 118 119 118 117 117 125 136 139 136 132 131 130 126 121 109 88 59 77 72 72
238 254 260 265 41 317 23 19 12 13 27 39 53 65 80 104 113 117 113 111 112 109 108 108 110 114 115 117 117 124 138 142 140 138 137 135 133 130 128 118 93 55 60 67